Regional Weather Roundup
Issued by NWS

Home | Current Version | Previous Version | Text Only | Print | Product List | Glossary On
Versions: 1 2 3 4 5 6 7 8 9 10 11 12 13 14 15 16 17 18 19 20 21 22 23 24 25 26 27 28 29 30 31 32 33 34 35 36 37 38 39 40 41 42 43 44 45 46 47 48 49 50
000
ASUS44 KEWX 191203
RWRTX
SOUTH TEXAS REGIONAL WEATHER ROUNDUP
NATIONAL WEATHER SERVICE AUSTIN/SAN ANTONIO TX
600 AM CST THU JAN 19 2017

NOTE: "FAIR" INDICATED FEW OR NO CLOUDS BELOW 12,000 FEET WITH NO
SIGNIFICANT WEATHER AND/OR OBSTRUCTIONS TO VISIBILITY.

* - THESE STATIONS ARE NOT NWS OR FAA STATIONS...AND ARE NOT SUBJECT
    TO NWS AND FAA QUALITY CONTROL.

TXZ171-172-183>190-191300-
TEXAS HILL COUNTRY AND EDWARDS PLATEAU

CITY           SKY/WX    TMP DP  RH WIND       PRES   REMARKS
JUNCTION       CLOUDY    42  42 100 W6        29.87F FOG     WCI  38
6HR MIN TEMP:  42; 6HR MAX TEMP:  47;

*LLANO         CLOUDY    50  48  93 W6        29.90F WCI  48
BURNET         CLOUDY    49  48  97 CALM      29.89S FOG
6HR MIN TEMP:  49; 6HR MAX TEMP:  50;

*HORSESHOE BAY CLOUDY    51  49  95 CALM      29.88S
6HR MIN TEMP:  50; 6HR MAX TEMP:  51;

*KERRVILLE     FOG       49  48  97 CALM      29.89R VSB 1/4
6HR MIN TEMP:  49; 6HR MAX TEMP:  51;

*FREDERICKSBRG FOG       47  47  97 W5        29.89R VSB 1/4 WCI  45
*ROCKSPRINGS   FOG       43  43 100 W3        29.90F VSB 1/2
*BOERNE STAGE  CLOUDY    50  50 100 SW3       29.89F
*CASTROVILLE   CLOUDY    53  53 100 S5        29.92R
HONDO          CLOUDY    53  50  89 CALM      29.90S
6HR MIN TEMP:  52; 6HR MAX TEMP:  54; 6HR PCP: TRACE;

*UVALDE        CLOUDY    49  49  99 CALM      29.92R
6HR MIN TEMP:  48; 6HR MAX TEMP:  52; 6HR PCP:  0.01;

DEL RIO        FOG       41  41 100 CALM      29.91S VSB<1/4
6HR MIN TEMP:  39; 6HR MAX TEMP:  46;

LAUGHLIN AFB   CLEAR     41  40  97 CALM      29.90F
6HR MIN TEMP:  40; 6HR MAX TEMP:  46;

CARRIZO SPRGS  MOCLDY    48  48 100 CALM      29.90F
*EAGLE PASS    PTSUNNY   45  43  93 NW6       29.92S FOG     WCI  41
$$

TXZ173-191>194-202-209-217>225-228-191300-
CENTRAL AND SOUTH CENTRAL TEXAS

CITY           SKY/WX    TMP DP  RH WIND       PRES   REMARKS
GEORGETOWN     CLOUDY    52  46  82 S5        29.88S
6HR MIN TEMP:  52; 6HR MAX TEMP:  52;

AUSTIN/BERGSTM MOCLDY    53  50  89 CALM      29.88F
6HR MIN TEMP:  52; 6HR MAX TEMP:  54; 6HR PCP: TRACE;

AUSTIN/MABRY   CLOUDY    52  50  93 CALM      29.89F
6HR MIN TEMP:  52; 6HR MAX TEMP:  54; 6HR PCP: TRACE;

*AUSTIN/EXEC   CLOUDY    50  50 100 CALM      29.89S
*LAGO VISTA    FOG       51  51  98 CALM      29.88S VSB 1
6HR MIN TEMP:  51; 6HR MAX TEMP:  51;

SAN MARCOS     CLOUDY    52  48  87 CALM      29.89F
6HR MIN TEMP:  52; 6HR MAX TEMP:  54;

NEW BRAUNFELS  MOCLDY    51  50  96 S6        29.90R
6HR MIN TEMP:  51; 6HR MAX TEMP:  54; 6HR PCP:  0.01;

RANDOLPH AFB   CLOUDY    51  51 100 SE3       29.89S
6HR MIN TEMP:  51; 6HR MAX TEMP:  53; 6HR PCP:  0.02;

PT SAN ANTONIO NOT AVBL
SAN ANTONIO    CLOUDY    53  50  89 SE7       29.89F
6HR MIN TEMP:  53; 6HR MAX TEMP:  54; 6HR PCP: TRACE;

STINSON FIELD  MOCLDY    54  52  93 NE5       29.86F
6HR MIN TEMP:  54; 6HR MAX TEMP:  57; 6HR PCP:  0.03;

*PLEASANTON    DRIZZLE   54  54  99 SW3       29.93R
6HR MIN TEMP:  54; 6HR MAX TEMP:  55; 6HR PCP:  0.43;

*LA GRANGE     LGT RAIN  53  53  97 SE3       29.85F
6HR MIN TEMP:  53; 6HR MAX TEMP:  54; 6HR PCP:  0.07;

*GIDDINGS      DRIZZLE   51  50  98 CALM      29.89S
6HR MIN TEMP:  50; 6HR MAX TEMP:  51;

*GONZALES      LGT RAIN  54  54 100 CALM      29.89R
6HR MIN TEMP:  54; 6HR MAX TEMP:  55; 6HR PCP:  0.15;

$$

TXZ163>164-176>182-195>201-210>213-226-227-235-191300-
SOUTHEAST TEXAS

CITY           SKY/WX    TMP DP  RH WIND       PRES   REMARKS
COLLEGE STN    LGT RAIN  52  51  97 CALM      29.88F FOG
6HR MIN TEMP:  52; 6HR MAX TEMP:  52; 6HR PCP:  0.03;

*BRYAN         LGT RAIN  51  51 100 W7        29.90F
6HR MIN TEMP:  50; 6HR MAX TEMP:  51; 6HR PCP:  0.01;

*CALDWELL      NOT AVBL
*CROCKETT      CLOUDY    50  50 100 SW5       29.92R FOG     WCI  48
*BRENHAM       LGT RAIN  53  53  99 CALM      29.90F
6HR MIN TEMP:  53; 6HR MAX TEMP:  53; 6HR PCP:  0.01;

HUNTSVILLE     CLOUDY    52  50  93 VRB3      29.89F
6HR MIN TEMP:  52; 6HR MAX TEMP:  53; 6HR PCP:  0.01;

CONROE         CLOUDY    53  53 100 NW7       29.88F
6HR MIN TEMP:  53; 6HR MAX TEMP:  54; 6HR PCP: TRACE;

HOUSTON BUSH   CLOUDY    56  53  90 CALM      29.89F
6HR MIN TEMP:  55; 6HR MAX TEMP:  57; 6HR PCP:  0.01;

HOUSTON HOBBY  CLOUDY    56  55  97 NW3       29.89F
6HR MIN TEMP:  56; 6HR MAX TEMP:  58; 6HR PCP:  0.01;

*HOUSTON SW AP CLOUDY    55  53  95 N5        29.89F
6HR MIN TEMP:  55; 6HR MAX TEMP:  56; 6HR PCP:  0.01;

PEARLAND       CLOUDY    58  55  90 N5        29.90F
6HR MIN TEMP:  58; 6HR MAX TEMP:  59; 6HR PCP:  0.02;

HOUSTON HOOKS  CLOUDY    54  53  97 NW6       29.90F
6HR MIN TEMP:  54; 6HR MAX TEMP:  55; 6HR PCP:  0.01;

ELLINGTON FLD  CLOUDY    57  55  94 NW3       29.93R
SUGAR LAND     CLOUDY    53  53 100 NW7       29.90S
6HR MIN TEMP:  53; 6HR MAX TEMP:  55; 6HR PCP:  0.01;

*HOUSTON EXEC  LGT RAIN  52  52 100 N7        29.90F
*CLEVELAND MUN CLOUDY    55  54  97 CALM      29.90F
6HR MIN TEMP:  55; 6HR MAX TEMP:  56; 6HR PCP:  0.01;

*WHARTON       CLOUDY    54  52  95 NW7       29.91R
6HR MIN TEMP:  53; 6HR MAX TEMP:  55;

*COLUMBUS      DRIZZLE   52  51  95 CALM      29.89F
6HR MIN TEMP:  52; 6HR MAX TEMP:  53; 6HR PCP:  0.04;

*EAGLE LAKE    LGT RAIN  55  55 100 N6        29.89F
6HR MIN TEMP:  55; 6HR MAX TEMP:  56; 6HR PCP:  0.12;

$$

TXZ214>216-236>238-191300-
THE UPPER TEXAS COAST

CITY           SKY/WX    TMP DP  RH WIND       PRES   REMARKS
*ORANGE        CLOUDY   N/A N/A N/A SE3       29.88F HAZE
                                      6HR PCP:  0.03;

PORT ARTHUR    CLOUDY    63  62  97 NW6       29.88R FOG
6HR MIN TEMP:  63; 6HR MAX TEMP:  68;

GALVESTON      CLOUDY    61  59  93 NW5       29.91S
6HR MIN TEMP:  61; 6HR MAX TEMP:  64; 6HR PCP:  0.03;

ANGLETON       CLOUDY    57  55  93 N6        29.89F
6HR MIN TEMP:  56; 6HR MAX TEMP:  58; 6HR PCP:  0.15;

*BAY CITY      LGT RAIN  56  56 100 CALM      29.91S
PALACIOS       CLOUDY    55  54  96 CALM      29.89F
6HR MIN TEMP:  55; 6HR MAX TEMP:  56; 6HR PCP:  0.14;

$$

TXZ229>234-239>247-191300-
TEXAS COASTAL BEND AND RIO GRANDE PLAINS

CITY           SKY/WX    TMP DP  RH WIND       PRES   REMARKS
VICTORIA       HVY RAIN  55  53  93 CALM      29.90F FOG
6HR MIN TEMP:  55; 6HR MAX TEMP:  56; 6HR PCP:  0.04;

*BEEVILLE      DRIZZLE   56  56 100 E3        29.90S
ROCKPORT       CLOUDY    57  54  89 N3        29.91F
6HR MIN TEMP:  56; 6HR MAX TEMP:  59; 6HR PCP: TRACE;

*PORT ARANSAS  CLOUDY    56  55  94 NE8       29.90F
6HR MIN TEMP:  56; 6HR MAX TEMP:  59; 6HR PCP:  0.01;

*PORT LAVACA   LGT RAIN  54  54 100 CALM      29.92R
6HR MIN TEMP:  54; 6HR MAX TEMP:  56; 6HR PCP:  0.08;

*INGLESIDE     CLOUDY    57  55  93 NE9       29.90F
CORPUS CHRISTI CLOUDY    57  56  96 E8        29.89F
6HR MIN TEMP:  57; 6HR MAX TEMP:  58; 6HR PCP: TRACE;

CORPUS NAS     CLOUDY    57  56  96 N8        29.90S
6HR MIN TEMP:  57; 6HR MAX TEMP:  60; 6HR PCP:  0.02;

*ROBSTOWN      CLOUDY    58  58 100 NE3       29.91F
ALICE          CLOUDY    57  56  96 CALM      29.92S
6HR MIN TEMP:  57; 6HR MAX TEMP:  59; 6HR PCP: TRACE;

KINGSVILLE NAS CLOUDY    58  58 100 N3        29.92F
6HR MIN TEMP:  58; 6HR MAX TEMP:  59; 6HR PCP: TRACE;

COTULLA        CLOUDY    55  52  89 CALM      29.92R
6HR MIN TEMP:  55; 6HR MAX TEMP:  58; 6HR PCP:  0.27;

*FAITH RANCH   MOCLDY    52  52 100 W5        29.91F
LAREDO         CLOUDY    59  49  69 CALM      29.92S
6HR MIN TEMP:  59; 6HR MAX TEMP:  62;

$$

TXZ248>255-191300-
DEEP SOUTH TEXAS

CITY           SKY/WX    TMP DP  RH WIND       PRES   REMARKS
BROWNSVILLE    MOCLDY    62  59  90 SE3       29.92F
6HR MIN TEMP:  62; 6HR MAX TEMP:  64; 6HR PCP:  0.02;

PORT ISABEL    MOCLDY    61  61 100 CALM      29.91F
6HR MIN TEMP:  61; 6HR MAX TEMP:  63; 6HR PCP:  0.10;

*SOUTH PADRE   NOT AVBL
HARLINGEN



USA.gov is the U.S. government's official web portal to all federal, state and local government web resources and services.